TimePST,TemperatureF,Dew PointF,Humidity,Sea Level PressureIn,VisibilityMPH,Wind Direction,Wind SpeedMPH,Gust SpeedMPH,PrecipitationIn,Events,Conditions,WindDirDegrees,DateUTC
12:56 AM,30.0,7.2,38,30.34,10.0,SSE,10.4,-,N/A,,Clear,150,2013-01-04 08:56:00
1:56 AM,28.0,8.1,43,30.35,10.0,South,8.1,-,N/A,,Clear,170,2013-01-04 09:56:00
2:56 AM,27.1,9.1,47,30.35,10.0,SSE,5.8,-,N/A,,Clear,160,2013-01-04 10:56:00
3:56 AM,27.1,9.1,47,30.35,10.0,South,6.9,-,N/A,,Clear,170,2013-01-04 11:56:00
4:56 AM,25.2,8.1,48,30.36,10.0,SSE,5.8,-,N/A,,Clear,160,2013-01-04 12:56:00
5:56 AM,26.1,8.1,47,30.38,10.0,South,8.1,-,N/A,,Clear,190,2013-01-04 13:56:00
6:56 AM,26.1,8.1,47,30.41,10.0,SSE,8.1,-,N/A,,Clear,150,2013-01-04 14:56:00
7:56 AM,29.1,10.0,45,30.41,10.0,SSE,5.8,-,N/A,,Clear,150,2013-01-04 15:56:00
8:56 AM,36.9,11.1,35,30.42,10.0,Calm,Calm,-,N/A,,Clear,0,2013-01-04 16:56:00
9:56 AM,41.0,8.1,26,30.42,10.0,Variable,3.5,-,N/A,,Clear,0,2013-01-04 17:56:00
10:56 AM,45.0,6.1,20,30.40,10.0,East,4.6,-,N/A,,Clear,80,2013-01-04 18:56:00
11:56 AM,46.9,6.1,19,30.35,10.0,Variable,5.8,-,N/A,,Clear,0,2013-01-04 19:56:00
12:56 PM,48.9,6.1,18,30.31,10.0,ENE,5.8,-,N/A,,Clear,60,2013-01-04 20:56:00
1:56 PM,50.0,6.1,17,30.31,10.0,NNE,5.8,-,N/A,,Clear,30,2013-01-04 21:56:00
2:56 PM,50.9,5.0,16,30.31,10.0,Variable,5.8,-,N/A,,Clear,0,2013-01-04 22:56:00
3:56 PM,48.2,5.0,17,30.26,10.0,North,3.5,-,N/A,,Clear,10,2013-01-04 23:56:00
4:56 PM,45.0,8.1,22,30.32,10.0,Calm,Calm,-,N/A,,Clear,0,2013-01-05 00:56:00
5:56 PM,36.9,11.1,35,30.34,10.0,Calm,Calm,-,N/A,,Clear,0,2013-01-05 01:56:00
6:56 PM,35.6,10.4,35,30.28,10.0,SSE,8.1,-,N/A,,Clear,160,2013-01-05 02:56:00
7:56 PM,32.9,10.0,39,30.35,10.0,SSE,9.2,-,N/A,,Clear,160,2013-01-05 03:56:00
8:56 PM,32.0,9.1,38,30.35,10.0,SSE,9.2,-,N/A,,Clear,160,2013-01-05 04:56:00
9:56 PM,31.1,9.1,40,30.35,10.0,South,6.9,-,N/A,,Clear,190,2013-01-05 05:56:00
10:56 PM,31.1,8.1,38,30.35,10.0,South,10.4,-,N/A,,Clear,180,2013-01-05 06:56:00
11:56 PM,30.0,8.1,40,30.35,10.0,South,8.1,-,N/A,,Clear,190,2013-01-05 07:56:00